Time,TemperatureF,DewpointF,PressureIn,WindDirection,WindDirectionDegrees,WindSpeedMPH,WindSpeedGustMPH,Humidity,HourlyPrecipIn,Conditions,Clouds,dailyrainin,SoftwareType,DateUTC
2013-03-24 00:00:00,24.4,8.5,30.15,East,83,0.0,0.0,50,0.00,,,0.00,Weather View 32 v70,2013-03-24 07:00:00,
2013-03-24 00:15:00,23.9,9.2,30.15,East,83,0.0,0.0,53,0.00,,,0.00,Weather View 32 v70,2013-03-24 07:15:00,
2013-03-24 00:20:00,23.5,8.9,30.15,East,83,0.0,0.0,53,0.00,,,0.00,Weather View 32 v70,2013-03-24 07:20:00,
2013-03-24 00:25:00,23.4,8.3,30.15,East,83,0.0,0.0,52,0.00,,,0.00,Weather View 32 v70,2013-03-24 07:25:00,
2013-03-24 00:30:00,23.2,8.2,30.15,East,83,0.0,0.0,52,0.00,,,0.00,Weather View 32 v70,2013-03-24 07:30:00,
2013-03-24 00:35:00,23.0,8.4,30.15,East,83,0.0,0.0,53,0.00,,,0.00,Weather View 32 v70,2013-03-24 07:35:00,
2013-03-24 00:40:00,22.8,8.2,30.15,East,83,0.0,0.0,53,0.00,,,0.00,Weather View 32 v70,2013-03-24 07:40:00,
2013-03-24 00:45:00,22.8,8.2,30.15,East,83,0.0,0.0,53,0.00,,,0.00,Weather View 32 v70,2013-03-24 07:45:00,
2013-03-24 00:50:00,22.6,8.1,30.15,East,83,0.0,0.0,53,0.00,,,0.00,Weather View 32 v70,2013-03-24 07:50:00,
2013-03-24 00:55:00,22.5,7.9,30.15,East,83,0.0,0.0,53,0.00,,,0.00,Weather View 32 v70,2013-03-24 07:55:00,
2013-03-24 01:00:00,22.3,7.7,30.15,East,83,0.0,0.0,53,0.00,,,0.00,Weather View 32 v70,2013-03-24 08:00:00,
2013-03-24 01:05:00,22.1,7.6,30.15,East,83,0.0,0.0,53,0.00,,,0.00,Weather View 32 v70,2013-03-24 08:05:00,
2013-03-24 01:10:00,22.1,7.6,30.15,East,83,0.0,0.0,53,0.00,,,0.00,Weather View 32 v70,2013-03-24 08:10:00,
2013-03-24 01:15:00,21.9,7.4,30.15,East,83,0.0,0.0,53,0.00,,,0.00,Weather View 32 v70,2013-03-24 08:15:00,
2013-03-24 01:20:00,21.9,7.4,30.15,East,83,0.0,0.0,53,0.00,,,0.00,Weather View 32 v70,2013-03-24 08:20:00,
2013-03-24 01:25:00,22.1,7.6,30.15,East,83,0.0,0.0,53,0.00,,,0.00,Weather View 32 v70,2013-03-24 08:25:00,
2013-03-24 01:30:00,21.9,7.4,30.15,East,83,0.0,0.0,53,0.00,,,0.00,Weather View 32 v70,2013-03-24 08:30:00,
2013-03-24 01:35:00,21.9,7.4,30.15,East,83,0.0,0.0,53,0.00,,,0.00,Weather View 32 v70,2013-03-24 08:35:00,
2013-03-24 01:40:00,21.9,7.4,30.15,East,83,0.0,0.0,53,0.00,,,0.00,Weather View 32 v70,2013-03-24 08:40:00,
2013-03-24 01:45:00,21.9,7.4,30.15,East,83,0.0,0.0,53,0.00,,,0.00,Weather View 32 v70,2013-03-24 08:45:00,
2013-03-24 01:50:00,21.9,7.4,30.18,East,83,0.0,0.0,53,0.00,,,0.00,Weather View 32 v70,2013-03-24 08:50:00,
2013-03-24 01:55:00,21.9,7.4,30.18,East,83,0.0,0.0,53,0.00,,,0.00,Weather View 32 v70,2013-03-24 08:55:00,
2013-03-24 02:00:00,21.9,7.4,30.18,East,83,0.0,0.0,53,0.00,,,0.00,Weather View 32 v70,2013-03-24 09:00:00,
2013-03-24 02:05:00,21.7,7.2,30.18,East,83,0.0,0.0,53,0.00,,,0.00,Weather View 32 v70,2013-03-24 09:05:00,
2013-03-24 02:10:00,21.7,7.2,30.18,East,83,0.0,0.0,53,0.00,,,0.00,Weather View 32 v70,2013-03-24 09:10:00,
2013-03-24 02:15:00,21.7,7.2,30.18,East,83,0.0,0.0,53,0.00,,,0.00,Weather View 32 v70,2013-03-24 09:15:00,
2013-03-24 02:20:00,21.7,7.2,30.18,East,83,0.0,0.0,53,0.00,,,0.00,Weather View 32 v70,2013-03-24 09:20:00,
2013-03-24 02:25:00,21.7,7.2,30.18,East,83,0.0,0.0,53,0.00,,,0.00,Weather View 32 v70,2013-03-24 09:25:00,
2013-03-24 02:30:00,21.7,7.2,30.18,East,83,0.0,0.0,53,0.00,,,0.00,Weather View 32 v70,2013-03-24 09:30:00,
2013-03-24 02:35:00,21.9,7.8,30.15,East,83,0.0,0.0,54,0.00,,,0.00,Weather View 32 v70,2013-03-24 09:35:00,
2013-03-24 02:40:00,21.9,7.8,30.15,East,83,0.0,0.0,54,0.00,,,0.00,Weather View 32 v70,2013-03-24 09:40:00,
2013-03-24 02:45:00,21.9,7.8,30.15,East,83,0.0,0.0,54,0.00,,,0.00,Weather View 32 v70,2013-03-24 09:45:00,
2013-03-24 02:50:00,21.9,7.8,30.15,East,83,0.0,0.0,54,0.00,,,0.00,Weather View 32 v70,2013-03-24 09:50:00,
2013-03-24 02:55:00,21.9,7.8,30.15,East,83,0.0,0.0,54,0.00,,,0.00,Weather View 32 v70,2013-03-24 09:55:00,
2013-03-24 03:00:00,21.9,8.2,30.15,East,83,0.0,0.0,55,0.00,,,0.00,Weather View 32 v70,2013-03-24 10:00:00,
2013-03-24 03:05:00,21.9,8.6,30.18,East,83,0.0,0.0,56,0.00,,,0.00,Weather View 32 v70,2013-03-24 10:05:00,
2013-03-24 03:10:00,21.9,8.2,30.18,East,83,0.0,0.0,55,0.00,,,0.00,Weather View 32 v70,2013-03-24 10:10:00,
2013-03-24 03:15:00,22.1,8.4,30.18,East,83,0.0,0.0,55,0.00,,,0.00,Weather View 32 v70,2013-03-24 10:15:00,
2013-03-24 03:20:00,22.3,8.6,30.15,East,83,0.0,0.0,55,0.00,,,0.00,Weather View 32 v70,2013-03-24 10:20:00,
2013-03-24 03:25:00,22.5,8.7,30.15,East,83,0.0,0.0,55,0.00,,,0.00,Weather View 32 v70,2013-03-24 10:25:00,
2013-03-24 03:30:00,22.6,8.9,30.15,East,83,0.0,0.0,55,0.00,,,0.00,Weather View 32 v70,2013-03-24 10:30:00,
2013-03-24 03:35:00,22.6,9.3,30.15,East,83,0.0,0.0,56,0.00,,,0.00,Weather View 32 v70,2013-03-24 10:35:00,
2013-03-24 03:40:00,22.5,9.1,30.15,East,83,0.0,0.0,56,0.00,,,0.00,Weather View 32 v70,2013-03-24 10:40:00,
2013-03-24 03:45:00,22.5,9.1,30.15,East,83,0.0,0.0,56,0.00,,,0.00,Weather View 32 v70,2013-03-24 10:45:00,
2013-03-24 03:50:00,22.5,8.7,30.15,East,83,0.0,0.0,55,0.00,,,0.00,Weather View 32 v70,2013-03-24 10:50:00,
2013-03-24 03:55:00,22.3,9.0,30.15,East,83,0.0,0.0,56,0.00,,,0.00,Weather View 32 v70,2013-03-24 10:55:00,
2013-03-24 04:00:00,22.3,9.0,30.15,East,83,0.0,0.0,56,0.00,,,0.00,Weather View 32 v70,2013-03-24 11:00:00,
2013-03-24 04:05:00,22.1,8.8,30.15,East,83,0.0,0.0,56,0.00,,,0.00,Weather View 32 v70,2013-03-24 11:05:00,
2013-03-24 04:10:00,21.9,8.6,30.15,East,83,0.0,0.0,56,0.00,,,0.00,Weather View 32 v70,2013-03-24 11:10:00,
2013-03-24 04:15:00,21.7,8.5,30.15,East,83,0.0,0.0,56,0.00,,,0.00,Weather View 32 v70,2013-03-24 11:15:00,
2013-03-24 04:20:00,21.6,8.3,30.15,East,83,0.0,0.0,56,0.00,,,0.00,Weather View 32 v70,2013-03-24 11:20:00,
2013-03-24 04:25:00,21.4,8.1,30.15,East,83,0.0,0.0,56,0.00,,,0.00,Weather View 32 v70,2013-03-24 11:25:00,
2013-03-24 04:30:00,21.2,7.9,30.15,East,83,0.0,0.0,56,0.00,,,0.00,Weather View 32 v70,2013-03-24 11:30:00,
2013-03-24 04:36:00,21.2,8.3,30.15,East,83,0.0,0.0,57,0.00,,,0.00,Weather View 32 v70,2013-03-24 11:36:00,
2013-03-24 04:41:00,21.0,7.8,30.15,East,83,0.0,0.0,56,0.00,,,0.00,Weather View 32 v70,2013-03-24 11:41:00,
2013-03-24 04:46:00,20.8,7.6,30.15,East,83,0.0,0.0,56,0.00,,,0.00,Weather View 32 v70,2013-03-24 11:46:00,
2013-03-24 04:51:00,20.7,7.8,30.15,East,83,0.0,0.0,57,0.00,,,0.00,Weather View 32 v70,2013-03-24 11:51:00,
2013-03-24 04:56:00,20.5,7.7,30.15,East,83,0.0,0.0,57,0.00,,,0.00,Weather View 32 v70,2013-03-24 11:56:00,
2013-03-24 05:01:00,20.3,7.5,30.15,East,83,0.0,0.0,57,0.00,,,0.00,Weather View 32 v70,2013-03-24 12:01:00,
2013-03-24 05:06:00,20.1,7.7,30.15,East,83,0.0,0.0,58,0.00,,,0.00,Weather View 32 v70,2013-03-24 12:06:00,
2013-03-24 05:11:00,20.1,7.7,30.15,East,83,0.0,0.0,58,0.00,,,0.00,Weather View 32 v70,2013-03-24 12:11:00,
2013-03-24 05:16:00,19.9,7.5,30.15,East,83,0.0,0.0,58,0.00,,,0.00,Weather View 32 v70,2013-03-24 12:16:00,
2013-03-24 05:21:00,19.9,7.5,30.15,East,83,0.0,0.0,58,0.00,,,0.00,Weather View 32 v70,2013-03-24 12:21:00,
2013-03-24 05:26:00,19.9,7.5,30.15,East,83,0.0,0.0,58,0.00,,,0.00,Weather View 32 v70,2013-03-24 12:26:00,
2013-03-24 05:31:00,19.9,7.5,30.15,East,83,0.0,0.0,58,0.00,,,0.00,Weather View 32 v70,2013-03-24 12:31:00,
2013-03-24 05:36:00,19.9,7.5,30.15,East,83,0.0,0.0,58,0.00,,,0.00,Weather View 32 v70,2013-03-24 12:36:00,
2013-03-24 05:41:00,19.8,7.4,30.15,East,83,0.0,0.0,58,0.00,,,0.00,Weather View 32 v70,2013-03-24 12:41:00,
2013-03-24 05:46:00,19.8,7.4,30.15,East,83,0.0,0.0,58,0.00,,,0.00,Weather View 32 v70,2013-03-24 12:46:00,
2013-03-24 05:51:00,19.8,7.4,30.15,East,83,0.0,0.0,58,0.00,,,0.00,Weather View 32 v70,2013-03-24 12:51:00,
2013-03-24 05:56:00,19.6,7.6,30.15,East,83,0.0,0.0,59,0.00,,,0.00,Weather View 32 v70,2013-03-24 12:56:00,
2013-03-24 06:01:00,19.4,7.8,30.15,East,83,0.0,0.0,60,0.00,,,0.00,Weather View 32 v70,2013-03-24 13:01:00,
2013-03-24 06:06:00,19.4,7.4,30.15,East,83,0.0,0.0,59,0.00,,,0.00,Weather View 32 v70,2013-03-24 13:06:00,
2013-03-24 06:11:00,19.4,7.4,30.15,East,83,0.0,0.0,59,0.00,,,0.00,Weather View 32 v70,2013-03-24 13:11:00,
2013-03-24 06:16:00,19.4,7.4,30.15,East,83,0.0,0.0,59,0.00,,,0.00,Weather View 32 v70,2013-03-24 13:16:00,
2013-03-24 06:21:00,19.4,7.4,30.15,East,83,0.0,0.0,59,0.00,,,0.00,Weather View 32 v70,2013-03-24 13:21:00,
2013-03-24 06:26:00,19.2,7.6,30.15,East,83,0.0,0.0,60,0.00,,,0.00,Weather View 32 v70,2013-03-24 13:26:00,
2013-03-24 06:31:00,19.0,7.4,30.15,East,83,0.0,0.0,60,0.00,,,0.00,Weather View 32 v70,2013-03-24 13:31:00,
2013-03-24 06:36:00,18.9,7.3,30.15,East,83,0.0,0.0,60,0.00,,,0.00,Weather View 32 v70,2013-03-24 13:36:00,
2013-03-24 06:41:00,19.2,7.6,30.15,East,83,0.0,0.0,60,0.00,,,0.00,Weather View 32 v70,2013-03-24 13:41:00,
2013-03-24 06:46:00,19.4,7.8,30.15,East,83,0.0,0.0,60,0.00,,,0.00,Weather View 32 v70,2013-03-24 13:46:00,
2013-03-24 06:51:00,19.4,7.8,30.15,East,83,0.0,0.0,60,0.00,,,0.00,Weather View 32 v70,2013-03-24 13:51:00,
2013-03-24 06:56:00,19.6,7.9,30.15,East,83,0.0,0.0,60,0.00,,,0.00,Weather View 32 v70,2013-03-24 13:56:00,
2013-03-24 07:01:00,19.6,7.9,30.15,East,83,0.0,0.0,60,0.00,,,0.00,Weather View 32 v70,2013-03-24 14:01:00,
2013-03-24 07:06:00,19.8,8.1,30.15,East,83,0.0,0.0,60,0.00,,,0.00,Weather View 32 v70,2013-03-24 14:06:00,
2013-03-24 07:11:00,19.8,8.1,30.15,East,83,0.0,0.0,60,0.00,,,0.00,Weather View 32 v70,2013-03-24 14:11:00,
2013-03-24 07:16:00,19.9,8.3,30.15,East,83,0.0,0.0,60,0.00,,,0.00,Weather View 32 v70,2013-03-24 14:16:00,
2013-03-24 07:22:00,19.9,8.7,30.15,East,83,0.0,0.0,61,0.00,,,0.00,Weather View 32 v70,2013-03-24 14:22:00,
2013-03-24 07:27:00,19.9,9.0,30.15,East,83,0.0,0.0,62,0.00,,,0.00,Weather View 32 v70,2013-03-24 14:27:00,
2013-03-24 07:32:00,20.1,9.2,30.15,East,83,0.0,0.0,62,0.00,,,0.00,Weather View 32 v70,2013-03-24 14:32:00,
2013-03-24 07:37:00,20.3,9.4,30.15,East,83,0.0,0.0,62,0.00,,,0.00,Weather View 32 v70,2013-03-24 14:37:00,
2013-03-24 07:42:00,20.7,9.7,30.15,East,83,0.0,0.0,62,0.00,,,0.00,Weather View 32 v70,2013-03-24 14:42:00,
2013-03-24 07:47:00,21.0,10.8,30.15,East,83,0.0,0.0,64,0.00,,,0.00,Weather View 32 v70,2013-03-24 14:47:00,
2013-03-24 07:52:00,21.4,11.1,30.15,East,83,0.0,0.0,64,0.00,,,0.00,Weather View 32 v70,2013-03-24 14:52:00,
2013-03-24 07:57:00,21.9,11.6,30.15,East,83,0.0,0.0,64,0.00,,,0.00,Weather View 32 v70,2013-03-24 14:57:00,
2013-03-24 08:02:00,22.6,11.9,30.15,East,83,0.0,0.0,63,0.00,,,0.00,Weather View 32 v70,2013-03-24 15:02:00,
2013-03-24 08:07:00,23.2,12.5,30.15,East,83,0.0,0.0,63,0.00,,,0.00,Weather View 32 v70,2013-03-24 15:07:00,
2013-03-24 08:12:00,23.7,12.6,30.15,East,83,0.0,0.0,62,0.00,,,0.00,Weather View 32 v70,2013-03-24 15:12:00,
2013-03-24 08:17:00,24.3,13.1,30.15,East,83,0.0,0.0,62,0.00,,,0.00,Weather View 32 v70,2013-03-24 15:17:00,
2013-03-24 08:22:00,25.0,13.4,30.15,East,83,0.0,0.0,61,0.00,,,0.00,Weather View 32 v70,2013-03-24 15:22:00,
2013-03-24 08:27:00,25.9,13.9,30.15,East,83,0.0,0.0,60,0.00,,,0.00,Weather View 32 v70,2013-03-24 15:27:00,
2013-03-24 08:32:00,26.4,13.6,30.15,East,83,0.0,0.0,58,0.00,,,0.00,Weather View 32 v70,2013-03-24 15:32:00,
2013-03-24 08:37:00,27.1,13.9,30.15,East,83,0.0,0.0,57,0.00,,,0.00,Weather View 32 v70,2013-03-24 15:37:00,
2013-03-24 08:42:00,28.6,14.0,30.15,East,83,0.0,0.0,54,0.00,,,0.00,Weather View 32 v70,2013-03-24 15:42:00,
2013-03-24 08:47:00,30.2,15.5,30.15,East,83,0.0,0.0,54,0.00,,,0.00,Weather View 32 v70,2013-03-24 15:47:00,
2013-03-24 08:52:00,31.5,14.5,30.15,East,83,0.0,0.0,49,0.00,,,0.00,Weather View 32 v70,2013-03-24 15:52:00,
2013-03-24 08:57:00,33.1,15.0,30.15,East,83,4.0,4.0,47,0.00,,,0.00,Weather View 32 v70,2013-03-24 15:57:00,
2013-03-24 09:02:00,34.2,14.0,30.15,NNE,30,4.0,5.0,43,0.00,,,0.00,Weather View 32 v70,2013-03-24 16:02:00,
2013-03-24 09:07:00,34.5,14.8,30.15,North,353,4.0,6.0,44,0.00,,,0.00,Weather View 32 v70,2013-03-24 16:07:00,
2013-03-24 09:12:00,34.7,14.5,30.15,NNE,20,4.0,6.0,43,0.00,,,0.00,Weather View 32 v70,2013-03-24 16:12:00,
2013-03-24 09:17:00,34.2,14.0,30.15,North,8,3.0,6.0,43,0.00,,,0.00,Weather View 32 v70,2013-03-24 16:17:00,
2013-03-24 09:23:00,34.0,14.3,30.15,North,10,0.0,6.0,44,0.00,,,0.00,Weather View 32 v70,2013-03-24 16:23:00,
2013-03-24 09:28:00,33.6,14.0,30.15,North,10,0.0,6.0,44,0.00,,,0.00,Weather View 32 v70,2013-03-24 16:28:00,
2013-03-24 09:33:00,33.1,13.5,30.18,NNE,14,0.0,6.0,44,0.00,,,0.00,Weather View 32 v70,2013-03-24 16:33:00,
2013-03-24 09:38:00,32.9,13.9,30.18,NNE,17,0.0,6.0,45,0.00,,,0.00,Weather View 32 v70,2013-03-24 16:38:00,
2013-03-24 09:43:00,32.9,13.9,30.18,NNE,17,3.0,6.0,45,0.00,,,0.00,Weather View 32 v70,2013-03-24 16:43:00,
2013-03-24 09:48:00,32.9,13.9,30.18,NNE,17,0.0,6.0,45,0.00,,,0.00,Weather View 32 v70,2013-03-24 16:48:00,
2013-03-24 09:53:00,33.1,14.0,30.18,NNE,18,0.0,6.0,45,0.00,,,0.00,Weather View 32 v70,2013-03-24 16:53:00,
2013-03-24 09:58:00,33.1,14.0,30.18,NNE,18,3.0,6.0,45,0.00,,,0.00,Weather View 32 v70,2013-03-24 16:58:00,
2013-03-24 10:03:00,33.3,14.2,30.15,NNE,18,0.0,6.0,45,0.00,,,0.00,Weather View 32 v70,2013-03-24 17:03:00,
2013-03-24 10:08:00,33.6,14.5,30.15,NNE,18,0.0,6.0,45,0.00,,,0.00,Weather View 32 v70,2013-03-24 17:08:00,
2013-03-24 10:13:00,34.0,14.3,30.15,ENE,66,4.0,6.0,44,0.00,,,0.00,Weather View 32 v70,2013-03-24 17:13:00,
2013-03-24 10:18:00,34.5,14.3,30.15,East,85,4.0,5.0,43,0.00,,,0.00,Weather View 32 v70,2013-03-24 17:18:00,
2013-03-24 10:23:00,34.9,14.6,30.15,East,85,3.0,5.0,43,0.00,,,0.00,Weather View 32 v70,2013-03-24 17:23:00,
2013-03-24 10:28:00,35.1,14.8,30.15,East,82,4.0,5.0,43,0.00,,,0.00,Weather View 32 v70,2013-03-24 17:28:00,
2013-03-24 10:33:00,35.4,15.1,30.15,East,82,3.0,5.0,43,0.00,,,0.00,Weather View 32 v70,2013-03-24 17:33:00,
2013-03-24 10:39:00,35.6,14.7,30.15,East,81,0.0,5.0,42,0.00,,,0.00,Weather View 32 v70,2013-03-24 17:39:00,
2013-03-24 10:44:00,36.0,15.6,30.15,NNE,15,3.0,5.0,43,0.00,,,0.00,Weather View 32 v70,2013-03-24 17:44:00,
2013-03-24 10:49:00,36.1,15.2,30.15,NE,54,0.0,5.0,42,0.00,,,0.00,Weather View 32 v70,2013-03-24 17:49:00,
2013-03-24 10:54:00,36.1,15.2,30.15,NE,54,0.0,5.0,42,0.00,,,0.00,Weather View 32 v70,2013-03-24 17:54:00,
2013-03-24 10:59:00,36.5,15.6,30.15,NE,42,2.0,5.0,42,0.00,,,0.00,Weather View 32 v70,2013-03-24 17:59:00,
2013-03-24 11:04:00,36.9,15.9,30.15,NNW,341,3.0,5.0,42,0.00,,,0.00,Weather View 32 v70,2013-03-24 18:04:00,
2013-03-24 11:09:00,36.9,15.9,30.15,WSW,258,3.0,5.0,42,0.00,,,0.00,Weather View 32 v70,2013-03-24 18:09:00,
2013-03-24 11:14:00,37.2,16.2,30.15,SW,228,0.0,5.0,42,0.00,,,0.00,Weather View 32 v70,2013-03-24 18:14:00,
2013-03-24 11:19:00,38.1,16.5,30.15,SW,225,0.0,5.0,41,0.00,,,0.00,Weather View 32 v70,2013-03-24 18:19:00,
2013-03-24 11:24:00,38.1,16.5,30.15,SW,236,3.0,5.0,41,0.00,,,0.00,Weather View 32 v70,2013-03-24 18:24:00,
2013-03-24 11:29:00,38.5,16.8,30.15,SW,225,2.0,5.0,41,0.00,,,0.00,Weather View 32 v70,2013-03-24 18:29:00,
2013-03-24 11:34:00,38.8,17.1,30.15,SW,225,0.0,7.0,41,0.00,,,0.00,Weather View 32 v70,2013-03-24 18:34:00,
2013-03-24 11:39:00,39.6,17.8,30.15,East,86,2.0,7.0,41,0.00,,,0.00,Weather View 32 v70,2013-03-24 18:39:00,
2013-03-24 11:44:00,40.3,17.8,30.15,NE,56,3.0,7.0,40,0.00,,,0.00,Weather View 32 v70,2013-03-24 18:44:00,
2013-03-24 11:49:00,40.6,18.2,30.15,NNE,30,0.0,7.0,40,0.00,,,0.00,Weather View 32 v70,2013-03-24 18:49:00,
2013-03-24 11:54:00,40.6,18.2,30.15,SSE,161,4.0,7.0,40,0.00,,,0.00,Weather View 32 v70,2013-03-24 18:54:00,
2013-03-24 11:59:00,40.5,18.0,30.15,SSE,161,4.0,7.0,40,0.00,,,0.00,Weather View 32 v70,2013-03-24 18:59:00,
2013-03-24 12:00:00,40.5,18.0,30.15,SSE,156,3.0,7.0,40,0.00,,,0.00,Weather View 32 v70,2013-03-24 19:00:00,
2013-03-24 12:04:00,40.8,18.3,30.15,ESE,110,0.0,7.0,40,0.00,,,0.00,Weather View 32 v70,2013-03-24 19:04:00,
2013-03-24 12:09:00,41.0,17.9,30.15,ENE,58,3.0,7.0,39,0.00,,,0.00,Weather View 32 v70,2013-03-24 19:09:00,
2013-03-24 12:14:00,41.0,17.9,30.15,NE,56,3.0,7.0,39,0.00,,,0.00,Weather View 32 v70,2013-03-24 19:14:00,
2013-03-24 12:19:00,41.5,18.4,30.15,NE,56,2.0,7.0,39,0.00,,,0.00,Weather View 32 v70,2013-03-24 19:19:00,
2013-03-24 12:24:00,42.1,18.9,30.15,SSE,153,3.0,7.0,39,0.00,,,0.00,Weather View 32 v70,2013-03-24 19:24:00,
2013-03-24 12:29:00,42.1,18.9,30.15,ESE,117,4.0,7.0,39,0.00,,,0.00,Weather View 32 v70,2013-03-24 19:29:00,
2013-03-24 12:34:00,41.5,18.4,30.12,ESE,111,4.0,6.0,39,0.00,,,0.00,Weather View 32 v70,2013-03-24 19:34:00,
2013-03-24 12:39:00,41.0,17.9,30.12,ESE,107,2.0,6.0,39,0.00,,,0.00,Weather View 32 v70,2013-03-24 19:39:00,
2013-03-24 12:44:00,41.5,18.4,30.12,East,79,3.0,6.0,39,0.00,,,0.00,Weather View 32 v70,2013-03-24 19:44:00,
2013-03-24 12:49:00,42.6,19.4,30.12,East,79,2.0,6.0,39,0.00,,,0.00,Weather View 32 v70,2013-03-24 19:49:00,
2013-03-24 12:54:00,42.8,19.5,30.12,SE,128,3.0,6.0,39,0.00,,,0.00,Weather View 32 v70,2013-03-24 19:54:00,
2013-03-24 12:59:00,42.8,19.5,30.12,SSE,161,4.0,6.0,39,0.00,,,0.00,Weather View 32 v70,2013-03-24 19:59:00,
2013-03-24 13:00:00,42.6,19.4,30.12,SSE,161,5.0,6.0,39,0.00,,,0.00,Weather View 32 v70,2013-03-24 20:00:00,
2013-03-24 13:04:00,42.8,19.5,30.12,SSE,161,3.0,6.0,39,0.00,,,0.00,Weather View 32 v70,2013-03-24 20:04:00,
2013-03-24 13:09:00,43.0,19.7,30.12,SE,126,3.0,6.0,39,0.00,,,0.00,Weather View 32 v70,2013-03-24 20:09:00,
2013-03-24 13:14:00,43.2,19.8,30.12,ENE,62,2.0,6.0,39,0.00,,,0.00,Weather View 32 v70,2013-03-24 20:14:00,
2013-03-24 13:19:00,43.3,20.0,30.12,ENE,58,0.0,6.0,39,0.00,,,0.00,Weather View 32 v70,2013-03-24 20:19:00,
2013-03-24 13:24:00,43.9,20.5,30.12,SSE,161,6.0,7.0,39,0.00,,,0.00,Weather View 32 v70,2013-03-24 20:24:00,
2013-03-24 13:29:00,44.4,21.0,30.12,ENE,71,8.0,8.0,39,0.00,,,0.00,Weather View 32 v70,2013-03-24 20:29:00,
2013-03-24 13:34:00,44.6,20.5,30.12,ESE,109,4.0,8.0,38,0.00,,,0.00,Weather View 32 v70,2013-03-24 20:34:00,
2013-03-24 13:39:00,44.8,20.7,30.12,SSE,161,6.0,8.0,38,0.00,,,0.00,Weather View 32 v70,2013-03-24 20:39:00,
2013-03-24 13:44:00,45.0,20.8,30.12,ESE,109,5.0,8.0,38,0.00,,,0.00,Weather View 32 v70,2013-03-24 20:44:00,
2013-03-24 13:49:00,45.0,20.8,30.12,ESE,107,0.0,8.0,38,0.00,,,0.00,Weather View 32 v70,2013-03-24 20:49:00,
2013-03-24 13:54:00,45.5,21.3,30.12,ENE,77,6.0,9.0,38,0.00,,,0.00,Weather View 32 v70,2013-03-24 20:54:00,
2013-03-24 13:59:00,46.0,21.8,30.12,North,6,4.0,9.0,38,0.00,,,0.00,Weather View 32 v70,2013-03-24 20:59:00,
2013-03-24 14:00:00,46.0,21.8,30.12,NE,50,5.0,9.0,38,0.00,,,0.00,Weather View 32 v70,2013-03-24 21:00:00,
2013-03-24 14:04:00,46.6,22.3,30.12,NE,52,6.0,9.0,38,0.00,,,0.00,Weather View 32 v70,2013-03-24 21:04:00,
2013-03-24 14:09:00,46.4,22.1,30.12,NE,53,4.0,10.0,38,0.00,,,0.00,Weather View 32 v70,2013-03-24 21:09:00,
2013-03-24 14:14:00,46.8,22.5,30.12,East,83,6.0,10.0,38,0.00,,,0.00,Weather View 32 v70,2013-03-24 21:14:00,
2013-03-24 14:19:00,47.3,22.9,30.09,East,80,4.0,10.0,38,0.00,,,0.00,Weather View 32 v70,2013-03-24 21:19:00,
2013-03-24 14:25:00,46.9,22.6,30.09,ESE,104,4.0,10.0,38,0.00,,,0.00,Weather View 32 v70,2013-03-24 21:25:00,
2013-03-24 14:30:00,46.6,22.3,30.09,ENE,75,4.0,10.0,38,0.00,,,0.00,Weather View 32 v70,2013-03-24 21:30:00,
2013-03-24 14:35:00,46.4,22.1,30.09,NNE,28,4.0,10.0,38,0.00,,,0.00,Weather View 32 v70,2013-03-24 21:35:00,
2013-03-24 14:40:00,46.6,22.3,30.09,ESE,111,4.0,10.0,38,0.00,,,0.00,Weather View 32 v70,2013-03-24 21:40:00,
2013-03-24 14:45:00,46.4,22.1,30.09,ENE,62,3.0,10.0,38,0.00,,,0.00,Weather View 32 v70,2013-03-24 21:45:00,
2013-03-24 14:50:00,46.4,22.1,30.09,East,89,8.0,10.0,38,0.00,,,0.00,Weather View 32 v70,2013-03-24 21:50:00,
2013-03-24 14:55:00,46.0,21.8,30.09,ENE,75,4.0,11.0,38,0.00,,,0.00,Weather View 32 v70,2013-03-24 21:55:00,
2013-03-24 15:00:00,46.0,21.8,30.09,East,99,5.0,11.0,38,0.00,,,0.00,Weather View 32 v70,2013-03-24 22:00:00,
2013-03-24 15:05:00,46.0,21.8,30.09,ENE,77,4.0,11.0,38,0.00,,,0.00,Weather View 32 v70,2013-03-24 22:05:00,
2013-03-24 15:10:00,46.2,22.0,30.09,ENE,71,5.0,11.0,38,0.00,,,0.00,Weather View 32 v70,2013-03-24 22:10:00,
2013-03-24 15:15:00,46.6,22.3,30.09,ENE,58,3.0,11.0,38,0.00,,,0.00,Weather View 32 v70,2013-03-24 22:15:00,
2013-03-24 15:20:00,46.9,22.6,30.09,SSE,149,3.0,11.0,38,0.00,,,0.00,Weather View 32 v70,2013-03-24 22:20:00,
2013-03-24 15:25:00,47.1,22.8,30.09,SE,142,4.0,11.0,38,0.00,,,0.00,Weather View 32 v70,2013-03-24 22:25:00,
2013-03-24 15:30:00,46.6,22.3,30.09,SE,126,4.0,11.0,38,0.00,,,0.00,Weather View 32 v70,2013-03-24 22:30:00,
2013-03-24 15:35:00,46.8,22.5,30.09,ESE,105,4.0,11.0,38,0.00,,,0.00,Weather View 32 v70,2013-03-24 22:35:00,
2013-03-24 15:40:00,47.3,22.9,30.09,East,87,3.0,11.0,38,0.00,,,0.00,Weather View 32 v70,2013-03-24 22:40:00,
2013-03-24 15:45:00,47.1,22.8,30.09,East,84,4.0,11.0,38,0.00,,,0.00,Weather View 32 v70,2013-03-24 22:45:00,
2013-03-24 15:50:00,46.8,22.5,30.09,ENE,57,0.0,11.0,38,0.00,,,0.00,Weather View 32 v70,2013-03-24 22:50:00,
2013-03-24 15:55:00,46.8,22.5,30.09,ENE,69,2.0,8.0,38,0.00,,,0.00,Weather View 32 v70,2013-03-24 22:55:00,
2013-03-24 16:00:00,46.8,22.5,30.09,ENE,78,4.0,8.0,38,0.00,,,0.00,Weather View 32 v70,2013-03-24 23:00:00,
2013-03-24 16:05:00,46.8,22.5,30.09,ENE,77,5.0,8.0,38,0.00,,,0.00,Weather View 32 v70,2013-03-24 23:05:00,
2013-03-24 16:10:00,46.6,22.3,30.09,East,96,4.0,8.0,38,0.00,,,0.00,Weather View 32 v70,2013-03-24 23:10:00,
2013-03-24 16:15:00,46.6,22.3,30.09,ENE,77,5.0,8.0,38,0.00,,,0.00,Weather View 32 v70,2013-03-24 23:15:00,
2013-03-24 16:20:00,46.8,22.5,30.06,ENE,71,6.0,8.0,38,0.00,,,0.00,Weather View 32 v70,2013-03-24 23:20:00,
2013-03-24 16:25:00,46.8,22.5,30.06,ENE,64,6.0,8.0,38,0.00,,,0.00,Weather View 32 v70,2013-03-24 23:25:00,
2013-03-24 16:30:00,47.1,22.8,30.06,SE,125,4.0,8.0,38,0.00,,,0.00,Weather View 32 v70,2013-03-24 23:30:00,
2013-03-24 16:35:00,47.3,22.9,30.06,ENE,63,3.0,8.0,38,0.00,,,0.00,Weather View 32 v70,2013-03-24 23:35:00,
2013-03-24 16:40:00,47.7,23.3,30.06,NE,42,4.0,8.0,38,0.00,,,0.00,Weather View 32 v70,2013-03-24 23:40:00,
2013-03-24 16:45:00,48.2,23.1,30.06,East,97,4.0,8.0,37,0.00,,,0.00,Weather View 32 v70,2013-03-24 23:45:00,
2013-03-24 16:50:00,48.0,23.6,30.06,SSE,160,4.0,9.0,38,0.00,,,0.00,Weather View 32 v70,2013-03-24 23:50:00,
2013-03-24 16:55:00,47.8,23.4,30.06,SE,142,3.0,9.0,38,0.00,,,0.00,Weather View 32 v70,2013-03-24 23:55:00,
2013-03-24 17:00:00,47.7,23.3,30.06,East,101,6.0,9.0,38,0.00,,,0.00,Weather View 32 v70,2013-03-25 00:00:00,
2013-03-24 17:05:00,47.7,23.3,30.06,East,93,4.0,9.0,38,0.00,,,0.00,Weather View 32 v70,2013-03-25 00:05:00,
2013-03-24 17:10:00,47.5,23.1,30.06,ENE,75,3.0,9.0,38,0.00,,,0.00,Weather View 32 v70,2013-03-25 00:10:00,
2013-03-24 17:15:00,46.9,22.6,30.06,East,80,6.0,9.0,38,0.00,,,0.00,Weather View 32 v70,2013-03-25 00:15:00,
2013-03-24 17:20:00,46.4,22.1,30.06,NE,35,4.0,9.0,38,0.00,,,0.00,Weather View 32 v70,2013-03-25 00:20:00,
2013-03-24 17:25:00,46.2,22.0,30.06,East,79,6.0,11.0,38,0.00,,,0.00,Weather View 32 v70,2013-03-25 00:25:00,
2013-03-24 17:30:00,45.9,21.6,30.06,ENE,74,6.0,11.0,38,0.00,,,0.00,Weather View 32 v70,2013-03-25 00:30:00,
2013-03-24 17:35:00,45.5,21.3,30.06,East,92,6.0,11.0,38,0.00,,,0.00,Weather View 32 v70,2013-03-25 00:35:00,
2013-03-24 17:40:00,45.3,21.2,30.06,ESE,103,8.0,11.0,38,0.00,,,0.00,Weather View 32 v70,2013-03-25 00:40:00,
2013-03-24 17:45:00,45.1,21.0,30.06,ENE,77,6.0,11.0,38,0.00,,,0.00,Weather View 32 v70,2013-03-25 00:45:00,
2013-03-24 17:50:00,45.0,20.8,30.06,ENE,78,6.0,11.0,38,0.00,,,0.00,Weather View 32 v70,2013-03-25 00:50:00,
2013-03-24 17:55:00,44.8,20.7,30.06,ENE,69,8.0,11.0,38,0.00,,,0.00,Weather View 32 v70,2013-03-25 00:55:00,
2013-03-24 18:00:00,44.6,20.5,30.06,ENE,73,7.0,11.0,38,0.00,,,0.00,Weather View 32 v70,2013-03-25 01:00:00,
2013-03-24 18:05:00,44.6,21.1,30.06,East,84,4.0,11.0,39,0.00,,,0.00,Weather View 32 v70,2013-03-25 01:05:00,
2013-03-24 18:11:00,44.2,20.8,30.06,East,96,8.0,11.0,39,0.00,,,0.00,Weather View 32 v70,2013-03-25 01:11:00,
2013-03-24 18:16:00,44.1,20.7,30.06,SE,138,4.0,11.0,39,0.00,,,0.00,Weather View 32 v70,2013-03-25 01:16:00,
2013-03-24 18:21:00,43.9,20.5,30.06,ENE,64,4.0,11.0,39,0.00,,,0.00,Weather View 32 v70,2013-03-25 01:21:00,
2013-03-24 18:26:00,43.5,20.2,30.06,ESE,120,8.0,10.0,39,0.00,,,0.00,Weather View 32 v70,2013-03-25 01:26:00,
2013-03-24 18:31:00,43.3,20.0,30.06,East,91,4.0,10.0,39,0.00,,,0.00,Weather View 32 v70,2013-03-25 01:31:00,
2013-03-24 18:36:00,43.2,19.8,30.06,SE,129,5.0,10.0,39,0.00,,,0.00,Weather View 32 v70,2013-03-25 01:36:00,
2013-03-24 18:41:00,42.8,19.5,30.06,East,85,5.0,10.0,39,0.00,,,0.00,Weather View 32 v70,2013-03-25 01:41:00,
2013-03-24 18:46:00,42.4,19.8,30.06,ENE,69,8.0,10.0,40,0.00,,,0.00,Weather View 32 v70,2013-03-25 01:46:00,
2013-03-24 18:51:00,42.4,19.8,30.06,ENE,71,4.0,10.0,40,0.00,,,0.00,Weather View 32 v70,2013-03-25 01:51:00,
2013-03-24 18:56:00,42.3,19.6,30.06,ESE,121,3.0,10.0,40,0.00,,,0.00,Weather View 32 v70,2013-03-25 01:56:00,
2013-03-24 19:00:00,42.1,19.5,30.06,ENE,69,5.0,10.0,40,0.00,,,0.00,Weather View 32 v70,2013-03-25 02:00:00,
2013-03-24 19:01:00,42.1,19.5,30.06,East,98,4.0,10.0,40,0.00,,,0.00,Weather View 32 v70,2013-03-25 02:01:00,
2013-03-24 19:06:00,41.7,19.1,30.06,ENE,62,3.0,10.0,40,0.00,,,0.00,Weather View 32 v70,2013-03-25 02:06:00,
2013-03-24 19:11:00,41.5,19.0,30.06,ENE,75,6.0,10.0,40,0.00,,,0.00,Weather View 32 v70,2013-03-25 02:11:00,
2013-03-24 19:16:00,41.2,18.7,30.06,ENE,78,5.0,10.0,40,0.00,,,0.00,Weather View 32 v70,2013-03-25 02:16:00,
2013-03-24 19:21:00,41.0,18.5,30.06,East,82,4.0,10.0,40,0.00,,,0.00,Weather View 32 v70,2013-03-25 02:21:00,
2013-03-24 19:26:00,40.8,18.9,30.06,ENE,66,3.0,10.0,41,0.00,,,0.00,Weather View 32 v70,2013-03-25 02:26:00,
2013-03-24 19:31:00,40.6,18.7,30.06,ENE,74,4.0,10.0,41,0.00,,,0.00,Weather View 32 v70,2013-03-25 02:31:00,
2013-03-24 19:36:00,40.5,18.6,30.06,ENE,73,3.0,10.0,41,0.00,,,0.00,Weather View 32 v70,2013-03-25 02:36:00,
2013-03-24 19:41:00,40.3,18.4,30.06,ENE,73,2.0,8.0,41,0.00,,,0.00,Weather View 32 v70,2013-03-25 02:41:00,
2013-03-24 19:46:00,40.1,18.3,30.06,ENE,73,4.0,8.0,41,0.00,,,0.00,Weather View 32 v70,2013-03-25 02:46:00,
2013-03-24 19:51:00,40.1,18.3,30.06,ENE,74,4.0,8.0,41,0.00,,,0.00,Weather View 32 v70,2013-03-25 02:51:00,
2013-03-24 19:56:00,40.1,18.3,30.06,ENE,69,3.0,8.0,41,0.00,,,0.00,Weather View 32 v70,2013-03-25 02:56:00,
2013-03-24 20:00:00,39.9,18.1,30.06,ENE,70,3.0,8.0,41,0.00,,,0.00,Weather View 32 v70,2013-03-25 03:00:00,
2013-03-24 20:01:00,39.9,18.1,30.06,ENE,70,4.0,8.0,41,0.00,,,0.00,Weather View 32 v70,2013-03-25 03:01:00,
2013-03-24 20:06:00,39.9,18.7,30.06,ENE,70,0.0,6.0,42,0.00,,,0.00,Weather View 32 v70,2013-03-25 03:06:00,
2013-03-24 20:11:00,39.7,18.5,30.06,ENE,70,4.0,6.0,42,0.00,,,0.00,Weather View 32 v70,2013-03-25 03:11:00,
2013-03-24 20:16:00,39.7,18.5,30.06,ENE,70,2.0,6.0,42,0.00,,,0.00,Weather View 32 v70,2013-03-25 03:16:00,
2013-03-24 20:21:00,39.7,18.5,30.06,ENE,75,4.0,6.0,42,0.00,,,0.00,Weather View 32 v70,2013-03-25 03:21:00,
2013-03-24 20:26:00,39.7,18.5,30.06,ESE,113,3.0,6.0,42,0.00,,,0.00,Weather View 32 v70,2013-03-25 03:26:00,
2013-03-24 20:31:00,39.6,18.3,30.06,ESE,110,3.0,6.0,42,0.00,,,0.00,Weather View 32 v70,2013-03-25 03:31:00,
2013-03-24 20:36:00,39.6,18.3,30.06,East,79,3.0,6.0,42,0.00,,,0.00,Weather View 32 v70,2013-03-25 03:36:00,
2013-03-24 20:41:00,39.4,18.2,30.06,ENE,76,3.0,6.0,42,0.00,,,0.00,Weather View 32 v70,2013-03-25 03:41:00,
2013-03-24 20:46:00,39.4,18.2,30.06,ENE,70,5.0,6.0,42,0.00,,,0.00,Weather View 32 v70,2013-03-25 03:46:00,
2013-03-24 20:51:00,39.4,18.2,30.06,ENE,75,3.0,6.0,42,0.00,,,0.00,Weather View 32 v70,2013-03-25 03:51:00,
2013-03-24 20:56:00,39.2,18.0,30.06,ENE,75,2.0,6.0,42,0.00,,,0.00,Weather View 32 v70,2013-03-25 03:56:00,
2013-03-24 21:00:00,39.2,18.0,30.06,ENE,74,3.0,6.0,42,0.00,,,0.00,Weather View 32 v70,2013-03-25 04:00:00,
2013-03-24 21:01:00,39.2,18.0,30.06,ENE,74,3.0,6.0,42,0.00,,,0.00,Weather View 32 v70,2013-03-25 04:01:00,
2013-03-24 21:06:00,39.2,18.0,30.06,East,97,4.0,6.0,42,0.00,,,0.00,Weather View 32 v70,2013-03-25 04:06:00,
2013-03-24 21:11:00,39.0,17.8,30.06,East,96,0.0,6.0,42,0.00,,,0.00,Weather View 32 v70,2013-03-25 04:11:00,
2013-03-24 21:16:00,39.0,17.8,30.06,East,96,0.0,6.0,42,0.00,,,0.00,Weather View 32 v70,2013-03-25 04:16:00,
2013-03-24 21:21:00,38.8,17.7,30.06,East,96,0.0,6.0,42,0.00,,,0.00,Weather View 32 v70,2013-03-25 04:21:00,
2013-03-24 21:26:00,38.8,18.2,30.06,East,82,3.0,6.0,43,0.00,,,0.00,Weather View 32 v70,2013-03-25 04:26:00,
2013-03-24 21:32:00,38.7,18.1,30.06,East,82,4.0,6.0,43,0.00,,,0.00,Weather View 32 v70,2013-03-25 04:32:00,
2013-03-24 21:37:00,38.7,18.1,30.06,East,79,3.0,6.0,43,0.00,,,0.00,Weather View 32 v70,2013-03-25 04:37:00,
2013-03-24 21:42:00,38.7,18.1,30.06,East,79,0.0,6.0,43,0.00,,,0.00,Weather View 32 v70,2013-03-25 04:42:00,
2013-03-24 21:47:00,38.5,17.9,30.06,East,79,0.0,6.0,43,0.00,,,0.00,Weather View 32 v70,2013-03-25 04:47:00,
2013-03-24 21:52:00,38.3,17.7,30.06,East,79,0.0,6.0,43,0.00,,,0.00,Weather View 32 v70,2013-03-25 04:52:00,
2013-03-24 21:57:00,38.1,17.6,30.06,East,79,0.0,6.0,43,0.00,,,0.00,Weather View 32 v70,2013-03-25 04:57:00,
2013-03-24 22:02:00,38.1,17.6,30.06,East,79,0.0,6.0,43,0.00,,,0.00,Weather View 32 v70,2013-03-25 05:02:00,
2013-03-24 22:07:00,37.9,17.4,30.06,East,79,2.0,6.0,43,0.00,,,0.00,Weather View 32 v70,2013-03-25 05:07:00,
2013-03-24 22:12:00,37.9,17.4,30.06,East,79,0.0,6.0,43,0.00,,,0.00,Weather View 32 v70,2013-03-25 05:12:00,
2013-03-24 22:17:00,37.9,17.4,30.06,East,79,0.0,6.0,43,0.00,,,0.00,Weather View 32 v70,2013-03-25 05:17:00,
2013-03-24 22:22:00,37.9,17.9,30.06,ENE,77,3.0,6.0,44,0.00,,,0.00,Weather View 32 v70,2013-03-25 05:22:00,
2013-03-24 22:27:00,37.9,17.4,30.06,ENE,77,3.0,6.0,43,0.00,,,0.00,Weather View 32 v70,2013-03-25 05:27:00,
2013-03-24 22:32:00,37.9,17.9,30.06,ENE,77,2.0,6.0,44,0.00,,,0.00,Weather View 32 v70,2013-03-25 05:32:00,
2013-03-24 22:37:00,37.8,17.8,30.06,NE,42,2.0,5.0,44,0.00,,,0.00,Weather View 32 v70,2013-03-25 05:37:00,
2013-03-24 22:42:00,37.8,17.8,30.06,NE,48,3.0,5.0,44,0.00,,,0.00,Weather View 32 v70,2013-03-25 05:42:00,
2013-03-24 22:47:00,37.8,17.8,30.06,ENE,73,0.0,5.0,44,0.00,,,0.00,Weather View 32 v70,2013-03-25 05:47:00,
2013-03-24 22:52:00,37.8,17.8,30.06,ENE,73,0.0,5.0,44,0.00,,,0.00,Weather View 32 v70,2013-03-25 05:52:00,
2013-03-24 22:57:00,37.6,17.6,30.06,ENE,73,3.0,5.0,44,0.00,,,0.00,Weather View 32 v70,2013-03-25 05:57:00,
2013-03-24 23:02:00,37.6,17.6,30.06,ENE,73,0.0,5.0,44,0.00,,,0.00,Weather View 32 v70,2013-03-25 06:02:00,
2013-03-24 23:07:00,37.6,17.6,30.06,ENE,73,2.0,5.0,44,0.00,,,0.00,Weather View 32 v70,2013-03-25 06:07:00,
2013-03-24 23:12:00,37.4,18.0,30.06,ENE,73,0.0,5.0,45,0.00,,,0.00,Weather View 32 v70,2013-03-25 06:12:00,
2013-03-24 23:17:00,37.4,18.0,30.06,ENE,73,3.0,5.0,45,0.00,,,0.00,Weather View 32 v70,2013-03-25 06:17:00,
2013-03-24 23:22:00,37.4,18.0,30.06,ENE,73,2.0,4.0,45,0.00,,,0.00,Weather View 32 v70,2013-03-25 06:22:00,
2013-03-24 23:27:00,37.2,17.8,30.06,ENE,73,0.0,4.0,45,0.00,,,0.00,Weather View 32 v70,2013-03-25 06:27:00,
2013-03-24 23:32:00,37.0,17.6,30.06,ENE,73,0.0,4.0,45,0.00,,,0.00,Weather View 32 v70,2013-03-25 06:32:00,
2013-03-24 23:37:00,37.0,17.6,30.06,ENE,73,3.0,4.0,45,0.00,,,0.00,Weather View 32 v70,2013-03-25 06:37:00,
2013-03-24 23:42:00,37.0,18.2,30.06,ENE,73,0.0,4.0,46,0.00,,,0.00,Weather View 32 v70,2013-03-25 06:42:00,
2013-03-24 23:47:00,36.9,18.0,30.06,ENE,73,0.0,4.0,46,0.00,,,0.00,Weather View 32 v70,2013-03-25 06:47:00,
2013-03-24 23:52:00,36.9,18.0,30.06,ENE,73,0.0,4.0,46,0.00,,,0.00,Weather View 32 v70,2013-03-25 06:52:00,
2013-03-24 23:57:00,36.7,17.8,30.06,ENE,73,0.0,4.0,46,0.00,,,0.00,Weather View 32 v70,2013-03-25 06:57:00,